FW9878 Weather Reports


time (UTC)temp
C
wind
direction
speed
KPH
gust
KPH
rain 1hr
cm
rain 24hr
cm
rain mn
cm
humidity
%
barometer
mb
20260504081529 14 0 0.0 0.0 0.00 0.03 0.00 81 1008.4
20260504050120 16 131 1.6 8.0 0.00 0.03 0.00 69 1008.0
20260504044532 16 275 1.6 6.4 0.00 0.03 0.03 68 1008.5
20260504043031 16 147 1.6 4.8 0.00 0.03 0.03 68 1008.9
20260504041528 16 257 1.6 9.7 0.00 0.03 0.03 68 1009.1
20260504040032 16 175 1.6 8.0 0.00 0.03 0.03 68 1009.2
20260504034539 16 185 1.6 4.8 0.00 0.03 0.03 68 1009.3
20260504033110 16 213 1.6 6.4 0.00 0.03 0.03 67 1009.4
20260504033031 16 213 1.6 6.4 0.00 0.03 0.03 67 1009.4
20260504031530 16 171 1.6 6.4 0.00 0.03 0.03 66 1009.4
20260504030054 16 147 1.6 6.4 0.00 0.03 0.03 65 1009.5
20260504024530 17 192 1.6 6.4 0.00 0.03 0.03 63 1009.5
20260504023110 17 154 1.6 4.8 0.00 0.03 0.03 62 1009.6
20260504023028 17 154 1.6 4.8 0.00 0.03 0.03 62 1009.6
20260504021532 17 193 3.2 9.7 0.00 0.03 0.03 60 1009.4
20260504020035 18 174 3.2 11.3 0.00 0.03 0.03 58 1009.2
20260504014528 18 169 3.2 9.7 0.00 0.03 0.03 56 1009.2
20260504013028 18 194 3.2 6.4 0.00 0.03 0.03 55 1009.1
20260504011530 19 165 3.2 11.3 0.00 0.03 0.03 54 1009.0
20260504010027 20 190 3.2 8.0 0.00 0.03 0.03 53 1009.0
20260504004529 20 147 1.6 8.0 0.00 0.03 0.03 51 1009.0
20260504003031 21 198 3.2 9.7 0.00 0.03 0.03 49 1009.0
20260504001530 22 164 3.2 9.7 0.00 0.03 0.03 47 1009.2
20260504000030 23 166 3.2 11.3 0.00 0.03 0.03 45 1009.0
20260503234625 23 146 3.2 14.5 0.00 0.03 0.03 44 1009.2
20260503234533 23 146 3.2 14.5 0.00 0.03 0.03 44 1009.2
20260503233029 23 149 6.4 17.7 0.00 0.03 0.03 42 1009.3
20260503231543 24 273 4.8 12.9 0.00 0.03 0.03 42 1009.3
20260503230030 24 148 3.2 12.9 0.00 0.03 0.03 42 1009.4
20260503224536 24 259 6.4 14.5 0.00 0.03 0.03 42 1009.5
20260503223028 23 183 4.8 19.3 0.00 0.03 0.03 41 1009.6
20260503221529 23 167 4.8 19.3 0.00 0.03 0.03 41 1009.6
20260503220035 23 126 8.0 19.3 0.00 0.03 0.03 40 1009.6
20260503214531 23 144 6.4 19.3 0.00 0.03 0.03 43 1009.7
20260503213123 23 202 8.0 24.1 0.00 0.03 0.03 40 1009.8
20260503213047 23 202 8.0 24.1 0.00 0.03 0.03 40 1009.8
20260503211538 23 140 9.7 20.9 0.00 0.03 0.03 41 1010.2
20260503210029 23 244 9.7 24.1 0.00 0.03 0.03 42 1010.2
20260503204549 22 160 8.0 20.9 0.00 0.03 0.03 42 1010.8
20260503203030 22 195 11.3 25.7 0.00 0.03 0.03 42 1011.0
20260503201530 22 198 11.3 30.6 0.00 0.03 0.03 41 1011.2
20260503200030 22 147 9.7 22.5 0.00 0.03 0.03 43 1011.7
20260503194529 22 191 8.0 22.5 0.00 0.03 0.03 41 1012.4
20260503193108 21 140 11.3 22.5 0.00 0.03 0.03 42 1012.8
20260503193031 21 140 11.3 22.5 0.00 0.03 0.03 42 1012.8
20260503191610 21 187 9.7 22.5 0.00 0.03 0.03 44 1013.4
20260503191528 21 187 9.7 22.5 0.00 0.03 0.03 44 1013.4
20260503190027 21 136 9.7 27.4 0.00 0.03 0.03 45 1013.5
20260503184639 20 142 8.0 22.5 0.00 0.03 0.03 43 1014.2
20260503184533 20 142 8.0 22.5 0.00 0.03 0.03 43 1014.2
20260503183038 20 208 8.0 16.1 0.00 0.03 0.03 44 1014.7
20260503181532 20 270 3.2 19.3 0.00 0.03 0.03 45 1015.2
20260503180035 20 115 6.4 16.1 0.00 0.03 0.03 45 1015.6
20260503174553 19 329 8.0 20.9 0.00 0.13 0.03 47 1015.9
20260503173028 19 86 6.4 19.3 0.00 0.13 0.03 46 1016.3
20260503171535 18 137 9.7 16.1 0.00 0.13 0.03 47 1016.4